• MPC Preparation (Info)

  • MPEC 2010-V135: 2010 VO139

    The following Minor Planet Electronic Circular may be linked-to from your own Web pages, but must not otherwise be redistributed electronically.

    A form allowing access to any MPEC is at the bottom of this page.


    Read MPEC 2010-V134 Read MPEC 2010-V136


    M.P.E.C. 2010-V135                               Issued 2010 Nov. 14, 21:11 UT
    
         The Minor Planet Electronic Circulars contain information on unusual
             minor planets and routine data on comets.  They are published
       on behalf of Commission 20 of the International Astronomical Union by the
              Minor Planet Center, Smithsonian Astrophysical Observatory,
                              Cambridge, MA 02138, U.S.A.
    
                 Prepared using the Tamkin Foundation Computer Network
    
                                  MPC@CFA.HARVARD.EDU
           URL https://www.minorplanetcenter.org/iau/mpc.html  ISSN 1523-6714
    
                                      2010 VO139
    
    Observations:
         K10VD9O* C2010 11 14.22693 03 10 15.56 +15 50 25.5          20.2 V EV135G96
         K10VD9O  C2010 11 14.23391 03 10 15.78 +15 49 31.9          20.5 V EV135G96
         K10VD9O  C2010 11 14.24095 03 10 15.99 +15 48 38.3          20.0 V EV135G96
         K10VD9O  C2010 11 14.24800 03 10 16.21 +15 47 45.1          20.1 V EV135G96
         K10VD9O  C2010 11 14.30098 03 10 17.68 +15 41 04.7          20.5 V EV135G96
         K10VD9O  C2010 11 14.30156 03 10 17.65 +15 41 00.3          20.4 V EV135G96
         K10VD9O  C2010 11 14.30214 03 10 17.68 +15 40 56.1          20.8 V EV135G96
         K10VD9O  C2010 11 14.30272 03 10 17.72 +15 40 51.7          20.0 V EV135G96
         K10VD9O  C2010 11 14.42103 03 10 21.56 +15 26 20.0          20.8 V EV135G96
         K10VD9O  C2010 11 14.42161 03 10 21.58 +15 26 15.9          20.2 V EV135G96
         K10VD9O  C2010 11 14.42274 03 10 21.68 +15 26 07.2          20.8 V EV135G96
    
    Observer details:
    G96 Mt. Lemmon Survey.  Observer A. Boattini.  Measurers J. D. Ahern,
        E. C. Beshore, A. Boattini, G. J. Garradd, A. R. Gibbs, A. D. Grauer,
        R. E. Hill, R. A. Kowalski, S. M. Larson, R. H. McNaught.  1.5-m reflector
        + CCD.
    
    Orbital elements:
    2010 VO139                                               Earth MOID = 0.0078 AU
    Epoch 2010 Oct. 31.0 TT = JDT 2455500.5                 MPC
    M  11.69991              (2000.0)            P               Q
    n   0.32928222     Peri.   91.15991     +0.78079408     +0.61601480
    a   2.0769396      Node   230.82478     -0.61330570     +0.72381177
    e   0.7045276      Incl.    7.73500     -0.11923392     +0.31084125
    P   2.99           H   26.5           G   0.15
    From 11 observations 2010 Nov. 14.  E-assumed.
    
    Ephemeris:
    2010 VO139               a,e,i = 2.08, 0.70, 8                   q = 0.6137
    Date    TT    R. A. (2000) Decl.     Delta      r     Elong.  Phase     V
    2010 11 10    16 42.60   +64 50.5    0.00819  0.990    84.2    95.3    19.5
    2010 11 11    02 43.65   +44 33.6    0.0127   1.001   152.4    27.3    18.2
    2010 11 12    03 02.37   +26 08.6    0.0236   1.013   171.3     8.5    19.0
    2010 11 13    03 07.45   +19 36.9    0.0354   1.025   178.0     2.0    19.5
    2010 11 14    03 09.82   +16 22.5    0.0475   1.037   177.8     2.1    20.2
    2010 11 15    03 11.19   +14 27.2    0.0597   1.049   175.6     4.2    20.9
    2010 11 16    03 12.10   +13 11.4    0.0720   1.061   173.9     5.7    21.4
    2010 11 17    03 12.75   +12 17.9    0.0844   1.073   172.5     6.9    21.8
    2010 11 18    03 13.24   +11 38.3    0.0968   1.084   171.2     8.0    22.2
    2010 11 19    03 13.63   +11 08.1    0.109    1.096   170.1     8.9    22.5
    2010 11 20    03 13.96   +10 44.4    0.122    1.108   169.1     9.7    22.8
    
    Timothy B. Spahr             (C) Copyright 2010 MPC           M.P.E.C. 2010-V135
    

    Read MPEC 2010-V134 Read MPEC 2010-V136


    MPEC number:

    Enter an MPEC number in one of the following forms:

    • 1997-B01 (the full form)
    • J97B01 (the packed version of the full form)
    • B01 (the abbreviated form)